(389) Industria
ephemeris date magn radius delta ra dec elong phase
Opposition11 Aug 202611.62.711 AU1.704 AU21h17m-07°35'172.1°2.9°
Today14 Aug 202611.62.713 AU1.706 AU21h14m-07°40'171.8°3.1°
(389) Industria - 2026-08-14
astro.vanbuitenen.nl


 
-1 year
-1 month
-1 day
Now
+1 day
+1 month
+1 year

The interactive orbit chart above shows the body's path through the solar system and its position at the given date. Green and blue lines are shown perpendicular to the ecliptic plane: Green if the path is above the ecliptic plane, blue if it is below. (Left-click and drag to rotate the view; Right-click and drag to move the view; Use scroll wheel to zoom in our out.)

The orbital elements of Industria are:

            e (Eccentricity)                : 0.0665169
            a (Semimajor axis)              : 2.6085992
            i (Inclination)                 : 8.12320
            Ω (Longitude of ascending node) : 282.02116
            ω (Argument of perihelion)      : 267.95453
            M (Mean anomaly)                : 108.34839
            Epoch                           : 2026 Jun 09

            L (Longitude of perihelion)     : 9.95498
            B (Latitude of perihelion)      : -8.11799
            P (Orbital period in years)     : 4.21            
        

The light curve chart below shows the estimated development of the minor planet's magnitude.


The all-sky chart below shows the path of the minor planet over the same period as the light curve. The current position is marked yellow.





The following chart shows the path of the minor planet in the next few days. The field of view is optimized for (~10x50) binoculars and finderscopes.




Ephemerides:
Date       Time       RA (2000)    DEC (2000)    delta   radius  elong  phase   PA    magn
2026-08-14 00:00 UT   21 14 42.8   -07 40 58     1.706    2.713  171.8    3.1   147   11.6 
2026-08-14 04:01 UT   21 14 33.6   -07 41 20     1.706    2.713  171.7    3.1   146   11.6 
2026-08-15 00:00 UT   21 13 47.7   -07 43 10     1.707    2.713  171.4    3.2   140   11.6 
2026-08-16 00:00 UT   21 12 52.8   -07 45 25     1.709    2.714  170.8    3.4   133   11.6 
2026-08-17 00:00 UT   21 11 58.3   -07 47 43     1.711    2.714  170.2    3.7   127   11.6 
2026-08-18 00:00 UT   21 11 04.3   -07 50 03     1.713    2.715  169.4    3.9   122   11.6 
2026-08-19 00:00 UT   21 10 10.8   -07 52 26     1.716    2.715  168.6    4.2   117   11.7 
2026-08-20 00:00 UT   21 09 17.8   -07 54 50     1.719    2.716  167.7    4.6   113   11.7 
2026-08-21 00:00 UT   21 08 25.4   -07 57 17     1.722    2.716  166.8    4.9   110   11.7 
2026-08-22 00:00 UT   21 07 33.7   -07 59 45     1.725    2.717  165.8    5.2   107   11.7 
2026-08-23 00:00 UT   21 06 42.8   -08 02 14     1.729    2.717  164.8    5.6   105   11.8 
2026-08-24 00:00 UT   21 05 52.6   -08 04 45     1.732    2.718  163.8    6.0   103   11.8 
2026-08-25 00:00 UT   21 05 03.2   -08 07 16     1.736    2.719  162.8    6.3   101   11.8 
2026-08-26 00:00 UT   21 04 14.6   -08 09 48     1.741    2.719  161.7    6.7    99   11.8 
2026-08-27 00:00 UT   21 03 27.0   -08 12 21     1.745    2.720  160.7    7.1    98   11.9 
2026-08-28 00:00 UT   21 02 40.4   -08 14 53     1.750    2.720  159.6    7.4    96   11.9 
2026-08-29 00:00 UT   21 01 54.8   -08 17 26     1.755    2.721  158.6    7.8    95   11.9 
2026-08-30 00:00 UT   21 01 10.2   -08 19 59     1.761    2.721  157.5    8.2    94   11.9 
2026-08-31 00:00 UT   21 00 26.7   -08 22 31     1.766    2.722  156.4    8.5    93   11.9 
2026-09-01 00:00 UT   20 59 44.3   -08 25 03     1.772    2.722  155.3    8.9    92   12.0 
2026-09-02 00:00 UT   20 59 03.1   -08 27 33     1.778    2.723  154.3    9.3    91   12.0 
2026-09-03 00:00 UT   20 58 23.1   -08 30 03     1.785    2.723  153.2    9.6    90   12.0 
2026-09-04 00:00 UT   20 57 44.3   -08 32 32     1.791    2.724  152.1   10.0    90   12.0 
2026-09-05 00:00 UT   20 57 06.8   -08 34 60     1.798    2.724  151.0   10.3    89   12.1 
2026-09-06 00:00 UT   20 56 30.5   -08 37 25     1.805    2.725  149.9   10.7    88   12.1 
2026-09-07 00:00 UT   20 55 55.6   -08 39 50     1.812    2.725  148.9   11.0    88   12.1 
2026-09-08 00:00 UT   20 55 22.1   -08 42 12     1.820    2.726  147.8   11.4    87   12.1 
2026-09-09 00:00 UT   20 54 50.0   -08 44 32     1.827    2.726  146.7   11.7    87   12.2 
2026-09-10 00:00 UT   20 54 19.3   -08 46 50     1.835    2.727  145.7   12.0    86   12.2 
2026-09-11 00:00 UT   20 53 50.0   -08 49 05     1.843    2.727  144.6   12.3    86   12.2 
2026-09-12 00:00 UT   20 53 22.2   -08 51 18     1.852    2.728  143.5   12.7    85   12.2 
2026-09-13 00:00 UT   20 52 55.9   -08 53 28     1.860    2.728  142.5   13.0    85   12.2 


    Terminology:
            
    delta:  distance between minor planet and earth in AU
    radius: distance between minor planet and sun in AU
    magn:   magnitude (brightness) estimate    
    ra:     right ascension in hours (24h = 360deg)
    dec:    declination in degrees
    elong:  elongation in degrees (angle sun-earth-minor planet)    
    phase:  phase angle in degrees (angle sun-minor planet-earth)        
    AU:     Astronomical Unit (mean distance between earth and sun: 149597870.7 km
    

Orbital elements provided by the MPC (Minor Planet Center).
Calculations by a modified version of AAPlus, a C# implementation of the AA+ project by PJ Naughter from the algorithms presented in the book "Astronomical Algorithms" by Jean Meeus.
NGC2000 dso catalog and star labels from VizieR as provided by the Strasbourg astronomical Data Center.
Tycho2 catalog from the ESO archive.